Starlink 4430

operational
NORAD ID: 53485 Int'l Des: 2022-099 Owner: SPXS Country: US Constellation: starlink
LEOCIRCULARRETROGRADESSO

Starlink 4430について

説明を読み込み中...

リアルタイム位置

3D地球を読み込み中...

次回通過

高度履歴

Altitude vs Time

uPlot chart will show altitude changes over time

軌道要素

1 53485U 22099W 25259.26694675 -.00000340 00000-0 -21915-4 0 9996
2 53485 97.6024 19.4526 0002969 88.2720 271.8844 15.01259147169819
Epoch: Sep 16, 2025 • Age: 10 hours

現在のステータス

高度 566.4 km
速度 7.58 km/s
衛星直下点 34.67°N, 136.33°E
打ち上げ日 Aug 12, 2022
運用期間 3 years
タイプ internet

技術仕様

分類 Payload
質量 300.00 kg
乾燥質量 275.00 kg
総質量 300.00 kg
長さ 0.20 m
直径 2.80 m
スパン 9.00 m
形状 Box + pan
製造者 SPXS
バスタイプ Starlink
フェーズステータス In Orbit
所有者/国 SPXS/US

大規模コンステレーション

Loading constellations...